[[{"header":{"parameterUnit":"m.s-1","parameterCategory":1,"la1":30.2991,"la2":30.254,"lo1":-89.0895,"lo2":-89.0444,"dy":0.0017,"dx":0.0017,"nx":28,"ny":28,"refTime":"2023-11-07T03:00:00:Z","depth":0,"parameterNumber":2,"parameterNumberName":"U-component_of_WINDS"},"data":[0,0,0,0,0,0,0,0,0,0,0,0,0,0,0,0,0,0,0,0,0,0,0,0,0,0,0,0,0,0,0,0,0,0,0,0,0,0,0,0,0,0,0,0,0,0,0,0,0,0,0,0,0,0,0,0,0,0,0.651,0.651,0,0.6565,0.6566,0.6567,0.6589,0.6589,0.6589,0.6589,0.6645,0.6647,0.6649,0,0,0,0,0,0,0,0,0,0,0,0,0,0.6421,0.6423,0.651,0.651,0.6511,0.6565,0.6566,0.6567,0.6589,0.6589,0.6589,0.6589,0.6645,0.6647,0.6649,0,0,0,0,0,0,0,0,0,0,0,0,0,0.6467,0.6423,0.6509,0.6529,0.6531,0.6565,0.6566,0.6567,0.6589,0.6589,0.6589,0.6589,0.6644,0.6647,0.6649,0.6668,0,0,0.6657,0.6658,0,0,0,0,0,0,0,0,0.6464,0.647,0.6525,0.6527,0.653,0.657,0.6556,0.6601,0.6589,0.6567,0.6589,0.6589,0.6621,0.6625,0.6636,0.6671,0.6673,0.6657,0.6658,0.6659,0.666,0,0,0,0,0,0,0,0.6461,0.6468,0.6532,0.6526,0.6529,0.6534,0.654,0.6564,0.6594,0.6569,0.6571,0.6577,0.6622,0.6633,0.6637,0.6674,0.6657,0.6659,0.666,0.6661,0.6727,0.6728,0,0,0,0,0,0,0.6455,0.6465,0.653,0.6533,0.6496,0.6536,0.6543,0.6557,0.6594,0.6599,0.6577,0.6578,0.6629,0.6634,0.6639,0.6664,0.6659,0.6662,0.6663,0.6727,0.6727,0.6728,0,0,0,0,0,0,0.6453,0.646,0.6528,0.65,0.6509,0.6538,0.6554,0.6559,0.657,0.66,0.6606,0.6584,0.6629,0.6636,0.6661,0.6666,0.6663,0.6665,0.6727,0.6727,0.6728,0.6713,0,0,0,0,0,0,0.645,0.6459,0.6467,0.65,0.651,0.6548,0.6554,0.656,0.6575,0.6576,0.6608,0.6613,0.663,0.6657,0.6663,0.667,0.6667,0.6726,0.6727,0.6727,0.6714,0.6713,0.6713,0,0,0,0,0,0.6447,0.6461,0.6467,0.6475,0.652,0.6549,0.6555,0.6574,0.6575,0.6583,0.6602,0.6612,0.6665,0.6659,0.6667,0.6674,0.6726,0.6727,0.6727,0.6714,0.6713,0.6713,0,0,0,0,0,0,0.6428,0.6466,0.6473,0.6498,0.652,0.6552,0.6563,0.6573,0.6595,0.6595,0.6618,0.6625,0.6648,0.6664,0.6657,0.6694,0.6696,0.6698,0.6683,0.6683,0.6683,0.6679,0.6669,0,0,0,0,0,0.6427,0.6447,0.6479,0.6498,0.6508,0.6534,0.6547,0.656,0.6583,0.6592,0.6613,0.6636,0.6657,0.6671,0.6693,0.6716,0.6723,0.6724,0.6724,0.6724,0.6725,0.6738,0.6739,0.673,0.673,0.673,0,0,0.6425,0.6448,0.6459,0.6494,0.6513,0.6533,0.6541,0.6562,0.6577,0.6596,0.662,0.6636,0.6663,0.6687,0.6698,0.67,0.673,0.6725,0.6724,0.6726,0.6739,0.674,0.6741,0.673,0.673,0.673,0,0,0.6431,0.645,0.6468,0.6487,0.6514,0.6531,0.6535,0.6566,0.6578,0.6603,0.6617,0.6635,0.6672,0.669,0.6704,0.6717,0.6727,0.6723,0.6722,0.6735,0.6735,0.6736,0.674,0.6742,0.6725,0.6725,0.6725,0,0.6425,0.6456,0.6476,0.6496,0.6511,0.6529,0.6547,0.6564,0.6597,0.6607,0.6609,0.6655,0.6674,0.6703,0.6706,0.6716,0.6722,0.672,0.6734,0.6735,0.6736,0.674,0.6742,0.6724,0.6724,0.6724,0.6724,0,0.6446,0.6467,0.6478,0.651,0.6527,0.6546,0.6569,0.6583,0.6594,0.6611,0.6636,0.6659,0.6686,0.6694,0.6705,0.6724,0.6724,0.6729,0.6732,0.6736,0.674,0.6742,0.6723,0.6723,0.6723,0.6724,0,0,0.6442,0.6485,0.6489,0.6504,0.6536,0.6552,0.6572,0.6598,0.6609,0.6631,0.6648,0.6679,0.6684,0.67,0.6714,0.6725,0.6733,0.6729,0.673,0.6728,0.6754,0.675,0.6752,0.6739,0.674,0.674,0.6752,0,0.6453,0.6489,0.6508,0.6536,0.6555,0.6572,0.6589,0.6611,0.6626,0.6645,0.6663,0.6684,0.6689,0.6699,0.671,0.6729,0.6738,0.6729,0.6755,0.6756,0.6748,0.6754,0.675,0.676,0.6754,0.6754,0.6755,0,0.647,0.6492,0.6522,0.6551,0.656,0.6575,0.66,0.6618,0.6642,0.6653,0.6671,0.6684,0.6705,0.6706,0.6735,0.6728,0.674,0.6751,0.6752,0.6755,0.6755,0.6757,0.6764,0.6765,0.6758,0.6757,0.6757,0,0.6463,0.6501,0.6524,0.6536,0.6571,0.6581,0.6596,0.662,0.6634,0.6656,0.6666,0.669,0.6703,0.6721,0.674,0.6739,0.6767,0.677,0.6777,0.6776,0.6782,0.6781,0.679,0.679,0.679,0.679,0.6789,0,0.6473,0.649,0.6521,0.6535,0.6555,0.6577,0.6596,0.6612,0.6633,0.6651,0.6667,0.6682,0.6707,0.6726,0.6741,0.6763,0.6769,0.6778,0.6782,0.6776,0.6775,0.6784,0.6784,0.679,0.679,0.679,0.679,0,0.647,0.6491,0.6517,0.6548,0.6556,0.6569,0.6596,0.661,0.6626,0.6648,0.6654,0.668,0.6703,0.6724,0.6754,0.6765,0.6786,0.6791,0.6778,0.678,0.6786,0.6785,0.6801,0.6804,0.6801,0.6801,0.6801,0,0.6474,0.6488,0.6521,0.6533,0.6548,0.6568,0.6583,0.6605,0.6619,0.6648,0.6658,0.6682,0.6703,0.6738,0.676,0.6783,0.6789,0.6793,0.6792,0.6786,0.6789,0.6788,0.6789,0.6792,0.6792,0.6792,0.6792,0,0.648,0.649,0.6511,0.6535,0.6552,0.6572,0.6593,0.6603,0.6628,0.6643,0.6667,0.6683,0.6714,0.6737,0.6763,0.6778,0.6789,0.6792,0.6795,0.679,0.6781,0.6786,0.6777,0.6792,0.6792,0.6792,0.6792,0.6792,0.6481,0.6494,0.6519,0.6541,0.6559,0.6578,0.6593,0.6611,0.6631,0.6658,0.667,0.6693,0.6717,0.6753,0.6768,0.6787,0.6789,0.6793,0.6794,0.6795,0.6794,0.6778,0.6791,0.6791,0.6791,0.6792,0.6792,0,0.6487,0.6504,0.6525,0.6553,0.6571,0.658,0.6603,0.6617,0.6638,0.6659,0.6679,0.6706,0.6729,0.6752,0.6776,0.6787,0.6792,0.6792,0.6792,0.6795,0.679,0.6785,0.6787,0.6787,0.6787,0.6787,0.6787,0.6787,0.6493,0.6516,0.6528,0.656,0.6576,0.66,0.6612,0.663,0.6647,0.6676,0.6696,0.671,0.6732,0.6758,0.678,0.6786,0.6794,0.6792,0.68,0.6795,0.6795,0.6795,0.6791,0.6794,0.6794,0.6803,0.6803,0.6803]},{"header":{"parameterUnit":"m.s-1","parameterCategory":1,"la1":30.2991,"la2":30.254,"lo1":-89.0895,"lo2":-89.0444,"dy":0.0017,"dx":0.0017,"nx":28,"ny":28,"refTime":"2023-11-07T03:00:00:Z","depth":0,"parameterNumber":3,"parameterNumberName":"V-component_of_WINDS"},"data":[0,0,0,0,0,0,0,0,0,0,0,0,0,0,0,0,0,0,0,0,0,0,0,0,0,0,0,0,0,0,0,0,0,0,0,0,0,0,0,0,0,0,0,0,0,0,0,0,0,0,0,0,0,0,0,0,0,0,2.068,2.068,0,2.061,2.061,2.0609,2.0567,2.0567,2.0567,2.0567,2.0489,2.0487,2.0485,0,0,0,0,0,0,0,0,0,0,0,0,0,2.0773,2.0771,2.068,2.0679,2.0679,2.0611,2.061,2.0609,2.0567,2.0567,2.0567,2.0567,2.0489,2.0487,2.0485,0,0,0,0,0,0,0,0,0,0,0,0,0,2.0721,2.0771,2.0681,2.065,2.0646,2.0611,2.061,2.0608,2.0567,2.0567,2.0567,2.0566,2.049,2.0487,2.0485,2.0472,0,0,2.0476,2.0475,0,0,0,0,0,0,0,0,2.0724,2.0717,2.0655,2.0652,2.0648,2.0597,2.0614,2.0562,2.0567,2.0597,2.0567,2.0566,2.0525,2.0519,2.0506,2.0468,2.0465,2.0476,2.0474,2.0473,2.0472,0,0,0,0,0,0,0,2.0727,2.072,2.0652,2.0654,2.065,2.0638,2.063,2.0604,2.0563,2.0594,2.0591,2.0584,2.0523,2.0509,2.0504,2.0464,2.0476,2.0473,2.0471,2.047,2.0412,2.0412,0,0,0,0,0,0,2.0737,2.0723,2.0655,2.065,2.0686,2.0637,2.0628,2.0614,2.0563,2.0555,2.0584,2.0582,2.0514,2.0507,2.0501,2.0483,2.0473,2.047,2.0468,2.0412,2.0412,2.0412,0,0,0,0,0,0,2.0739,2.0731,2.0657,2.0686,2.0676,2.0635,2.062,2.0613,2.0599,2.0556,2.0547,2.0578,2.0514,2.0505,2.048,2.048,2.0469,2.0466,2.0412,2.0412,2.0412,2.0447,0,0,0,0,0,0,2.0742,2.0732,2.0728,2.0686,2.0674,2.0639,2.062,2.0611,2.0595,2.0592,2.0548,2.054,2.0513,2.0485,2.0477,2.0476,2.0464,2.0411,2.0412,2.0412,2.0446,2.0448,2.0451,0,0,0,0,0,2.0745,2.0739,2.0728,2.072,2.0669,2.0639,2.0632,2.0603,2.0595,2.059,2.0562,2.0542,2.0481,2.0482,2.0474,2.0471,2.0411,2.0412,2.0412,2.0444,2.0448,2.0451,0,0,0,0,0,0,2.0779,2.0733,2.072,2.0701,2.0675,2.0632,2.0625,2.0607,2.0581,2.0579,2.0541,2.0532,2.051,2.0488,2.049,2.0456,2.0444,2.0443,2.0472,2.0474,2.0477,2.0482,2.0461,0,0,0,0,0,2.0785,2.0766,2.0726,2.0713,2.0701,2.0666,2.0651,2.0631,2.0602,2.059,2.056,2.053,2.0505,2.0488,2.0462,2.0443,2.0432,2.0437,2.0439,2.0442,2.044,2.0428,2.043,2.0414,2.0414,2.0414,0,0,2.0795,2.0768,2.0758,2.0719,2.0697,2.0677,2.0656,2.0636,2.062,2.0586,2.0561,2.0538,2.0502,2.048,2.0469,2.0461,2.0443,2.0442,2.0444,2.0442,2.0429,2.043,2.0432,2.0414,2.0414,2.0414,0,0,2.0805,2.0783,2.0769,2.0748,2.0715,2.0691,2.0688,2.0649,2.0633,2.0608,2.0582,2.0562,2.0519,2.0495,2.0477,2.0479,2.0459,2.0472,2.0484,2.0473,2.0474,2.0475,2.0475,2.0476,2.0471,2.0471,2.0471,0,2.0821,2.0793,2.0764,2.0746,2.0729,2.07,2.0685,2.0665,2.0624,2.0613,2.0606,2.0552,2.0525,2.0497,2.0498,2.0485,2.0479,2.0476,2.0477,2.0477,2.0478,2.0477,2.0478,2.0473,2.0472,2.0472,2.0472,0,2.0815,2.0795,2.0788,2.0752,2.0735,2.0718,2.0686,2.0672,2.0653,2.0631,2.0605,2.0573,2.054,2.0532,2.0513,2.0501,2.0498,2.0484,2.0471,2.0482,2.0481,2.048,2.0475,2.0474,2.0474,2.0474,0,0,2.0841,2.0792,2.079,2.0773,2.0735,2.0719,2.0701,2.0671,2.0659,2.0632,2.0616,2.0581,2.0569,2.0548,2.0526,2.0517,2.052,2.0504,2.0502,2.0508,2.0504,2.0514,2.0515,2.0507,2.0507,2.0507,2.0507,0,2.0845,2.0814,2.0788,2.0766,2.0747,2.0719,2.0704,2.0678,2.0656,2.0636,2.0611,2.0587,2.0573,2.056,2.055,2.0522,2.0519,2.0522,2.0489,2.0489,2.0498,2.0514,2.0524,2.0526,2.0506,2.0506,2.0506,0,2.0844,2.0821,2.0797,2.0762,2.0753,2.074,2.0711,2.0693,2.0662,2.0647,2.0626,2.0604,2.0582,2.0572,2.0541,2.0544,2.0529,2.0514,2.0513,2.0508,2.0497,2.0509,2.0526,2.0526,2.0506,2.0506,2.0506,0,2.0866,2.0828,2.081,2.0796,2.0755,2.0746,2.0728,2.0698,2.0682,2.0657,2.0646,2.0617,2.0601,2.0579,2.0549,2.0544,2.0521,2.0508,2.0506,2.0507,2.0501,2.0502,2.0516,2.0494,2.0494,2.0494,2.0494,0,2.0871,2.0858,2.0819,2.0807,2.0791,2.0762,2.0746,2.0725,2.0699,2.0682,2.0655,2.0639,2.0601,2.058,2.0557,2.0535,2.0527,2.0514,2.0507,2.0515,2.0517,2.0504,2.0503,2.0494,2.0494,2.0494,2.0494,0,2.0892,2.0866,2.0843,2.0807,2.0798,2.0787,2.0755,2.0742,2.072,2.0698,2.0691,2.0656,2.063,2.0599,2.0561,2.0546,2.0525,2.0516,2.0536,2.0532,2.0532,2.0532,2.0537,2.0536,2.0516,2.0517,2.0517,0,2.0897,2.0886,2.085,2.0837,2.0821,2.0801,2.0786,2.0756,2.074,2.0706,2.0697,2.067,2.0646,2.0606,2.0575,2.0547,2.0536,2.054,2.0532,2.054,2.0535,2.0536,2.0535,2.0542,2.0542,2.0543,2.0543,0,2.0908,2.0896,2.0876,2.0851,2.0834,2.0812,2.079,2.0781,2.0746,2.073,2.0704,2.0686,2.065,2.0623,2.0591,2.057,2.055,2.0546,2.0544,2.0552,2.0564,2.0557,2.0541,2.0546,2.0545,2.0545,2.0545,2.0545,2.092,2.091,2.0883,2.0861,2.0842,2.0821,2.0808,2.0785,2.0764,2.0734,2.0717,2.0692,2.0662,2.0618,2.0598,2.0577,2.057,2.0567,2.0566,2.0565,2.0568,2.0568,2.0571,2.0571,2.0571,2.057,2.057,0,2.093,2.0912,2.0892,2.0863,2.0845,2.0831,2.0806,2.0791,2.077,2.0745,2.0724,2.0694,2.0668,2.0637,2.0608,2.0597,2.0587,2.059,2.059,2.0585,2.0576,2.058,2.0599,2.0599,2.0599,2.0599,2.0599,2.0599,2.0933,2.0914,2.0899,2.0871,2.0852,2.0829,2.0816,2.0796,2.0776,2.0746,2.0725,2.0705,2.0677,2.0647,2.0622,2.0613,2.0603,2.0609,2.0597,2.0589,2.0586,2.0584,2.0588,2.0607,2.0607,2.0608,2.0608,2.0609]}]]